Location: Unspecified
(0.0000°N, 0.0000°E)
Time: 05:50:28
(UTC+00:00)

STARLINK-34600 - Visible Passes

Search period start: 15 December 2025 00:00
Search period end: 25 December 2025 00:00
Orbit: 578 x 580 km, 70.0° (Epoch: 14 December)

Date Brightness Start Highest point End Pass type
(mag) Time Alt. Az. Time Alt. Az. Time Alt. Az.
17 Dec 7.0 04:03:33 10° SE 04:05:34 13° ESE 04:07:35 10° ENE visible
18 Dec 6.1 04:06:49 10° SSE 04:10:14 24° ESE 04:13:39 10° NE visible
19 Dec 4.9 04:10:51 10° S 04:14:53 43° ESE 04:18:54 10° NE visible
20 Dec 3.6 04:15:16 10° SSW 04:19:31 84° ESE 04:23:44 10° NNE visible
21 Dec 5.8 04:20:01 10° SSW 04:20:58 16° SW 04:20:58 16° SW visible
